Tracking 31027 objects as of 19-Jul-2025
HD Live streaming from Space Station
objects crossing your sky now

FREGAT R/B

Track FREGAT R/B now!


NORAD ID: 40546
Int'l Code: 2015-017C
Perigee: 23,505.4 km
Apogee: 23,607.9 km
Inclination: 57.0 °
Period: 858.8 minutes
Semi major axis: 29927 km
RCS: Unknown
Launch date: March 27, 2015
Source: Commonwealth of Independent States (former USSR) (CIS)
Launch site: FRENCH GUIANA (FRGUI)

Note: This is a ROCKET BODY
Your satellite tracking list
COSMOS 1408 DEB
Track 1 satellite(s)




NASA's NSSDC Master Catalog

Two Line Element Set (TLE):
1 40546U 15017C   25198.39557335 -.00000080  00000-0  00000-0 0  9997
2 40546  57.0470 354.3890 0017120 223.1644 136.7044  1.67685079 63136
Source of the keplerian elements: AFSPC